Regional Weather Roundup
Issued by NWS

Home | Current Version | Previous Version | Text Only | Print | Product List | Glossary Off
Versions: 1 2 3 4 5 6 7 8 9 10 11 12 13 14 15 16 17 18 19 20 21 22 23 24 25 26 27 28 29 30 31 32 33 34 35 36 37 38 39 40 41 42 43 44 45 46 47 48 49 50

000
ASUS43 KBIS 292220
RWRND

NORTH DAKOTA REGIONAL WEATHER ROUNDUP
NATIONAL WEATHER SERVICE BISMARCK ND
400 PM CST THU JAN 29 2015

NOTE: "FAIR" INDICATES FEW OR NO CLOUDS BELOW 12,000 FEET WITH NO
SIGNIFICANT WEATHER AND/OR OBSTRUCTIONS TO VISIBILITY.


NDZ001>003-009>011-017-292300-
NORTHWEST NORTH DAKOTA

CITY           SKY/WX    TMP DP  RH WIND       PRES   REMARKS
WILLISTON      MOSUNNY   31  20  63 W5        30.40F
MINOT          CLOUDY    19  11  70 N5        30.46S WCI  12
MINOT AFB      CLOUDY    18  14  86 N2        30.46F
$$

NDZ018>021-031>035-040>046-292300-
SOUTHWEST NORTH DAKOTA

CITY           SKY/WX    TMP DP  RH WIND       PRES   REMARKS
BISMARCK       MOSUNNY   29  18  63 NW5       30.46S
DICKINSON      SUNNY     38  20  48 CALM      30.35F
GARRISON         N/A     26  18  71 N5        30.44R
HETTINGER ARPT SUNNY     40  14  34 W6        30.39F
$$

NDZ004>008-012>016-024-026-027-054-292300-
NORTHEAST NORTH DAKOTA

CITY           SKY/WX    TMP DP  RH WIND       PRES   REMARKS
GRAND FORKS    MOSUNNY   13   3  64 N14       30.55R WCI  -2
GRND FRKS AFB  MOSUNNY   14   2  60 N10       30.55R WCI   1
DEVILS LAKE    CLOUDY    12   7  79 N8        30.49S WCI   1
$$

NDZ022-023-025-028>030-036>039-047>053-292300-
SOUTHEAST NORTH DAKOTA

CITY           SKY/WX    TMP DP  RH WIND       PRES   REMARKS
FARGO          PTSUNNY   18   6  59 N20       30.52R WCI   2
JAMESTOWN      CLOUDY    19  12  74 N12       30.47F WCI   7
$$




USA.gov is the U.S. government's official web portal to all federal, state and local government web resources and services.